| time (UTC) | temp F | wind direction | speed MPH | gust MPH | rain 1hr in | rain 24hr in | rain mn in | humidity % | barometer mb |
| 20260506144050 | 54 | 314 | 1.0 | 4.0 | 0.00 | 1.12 | 0.27 | 70 | 1010.4 |
| 20260506143554 | 53 | 313 | 2.0 | 4.0 | 0.00 | 1.12 | 0.27 | 71 | 1010.3 |
| 20260506143055 | 53 | 313 | 2.0 | 4.0 | 0.00 | 1.12 | 0.27 | 72 | 1010.2 |
| 20260506142558 | 53 | 313 | 1.0 | 7.0 | 0.00 | 1.12 | 0.27 | 72 | 1010.2 |
| 20260506142102 | 52 | 313 | 2.0 | 7.0 | 0.00 | 1.12 | 0.27 | 71 | 1010.2 |
| 20260506141546 | 52 | 287 | 3.0 | 6.0 | 0.00 | 1.12 | 0.27 | 71 | 1010.3 |
| 20260506141049 | 52 | 287 | 2.0 | 4.0 | 0.00 | 1.12 | 0.27 | 74 | 1010.3 |
| 20260506140549 | 52 | 286 | 2.0 | 5.0 | 0.00 | 1.12 | 0.27 | 75 | 1010.3 |
| 20260506140052 | 52 | 287 | 3.0 | 5.0 | 0.00 | 1.12 | 0.27 | 78 | 1010.4 |
| 20260506135556 | 51 | 287 | 1.0 | 3.0 | 0.00 | 1.12 | 0.27 | 80 | 1010.4 |
| 20260506135100 | 51 | 287 | 1.0 | 6.0 | 0.00 | 1.12 | 0.27 | 80 | 1010.3 |
| 20260506134544 | 50 | 287 | 2.0 | 6.0 | 0.00 | 1.12 | 0.27 | 81 | 1010.3 |
| 20260506134052 | 50 | 287 | 2.0 | 6.0 | 0.00 | 1.12 | 0.27 | 82 | 1010.2 |
| 20260506133600 | 49 | 287 | 1.0 | 6.0 | 0.00 | 1.12 | 0.27 | 85 | 1010.1 |
| 20260506133045 | 49 | 287 | 1.0 | 4.0 | 0.00 | 1.12 | 0.27 | 87 | 1009.9 |
| 20260506132549 | 48 | 287 | 1.0 | 3.0 | 0.00 | 1.12 | 0.27 | 88 | 1009.8 |
| 20260506132055 | 48 | 287 | 0.0 | 1.0 | 0.00 | 1.12 | 0.27 | 91 | 1009.9 |
| 20260506131600 | 47 | 287 | 0.0 | 3.0 | 0.00 | 1.12 | 0.27 | 91 | 1009.9 |
| 20260506131105 | 47 | 287 | 2.0 | 4.0 | 0.00 | 1.12 | 0.27 | 92 | 1009.6 |
| 20260506130546 | 47 | 287 | 0.0 | 4.0 | 0.00 | 1.12 | 0.27 | 93 | 1009.7 |
| 20260506130049 | 46 | 287 | 0.0 | 2.0 | 0.00 | 1.12 | 0.27 | 93 | 1009.6 |
| 20260506125555 | 46 | 286 | 0.0 | 3.0 | 0.00 | 1.12 | 0.27 | 94 | 1009.8 |
| 20260506125055 | 46 | 287 | 0.0 | 3.0 | 0.00 | 1.12 | 0.27 | 94 | 1009.6 |
| 20260506124558 | 46 | 288 | 0.0 | 4.0 | 0.00 | 1.12 | 0.27 | 94 | 1009.6 |
| 20260506124102 | 46 | 288 | 0.0 | 4.0 | 0.00 | 1.12 | 0.27 | 95 | 1009.3 |
| 20260506123546 | 46 | 288 | 0.0 | 2.0 | 0.00 | 1.12 | 0.27 | 95 | 1009.4 |
| 20260506123117 | 45 | 288 | 0.0 | 3.0 | 0.00 | 1.12 | 0.27 | 95 | 1009.3 |
| 20260506122559 | 45 | 288 | 1.0 | 3.0 | 0.00 | 1.12 | 0.27 | 95 | 1009.3 |
| 20260506122105 | 45 | 288 | 0.0 | 0.0 | 0.00 | 1.12 | 0.27 | 95 | 1009.2 |
| 20260506121549 | 45 | 288 | 0.0 | 0.0 | 0.00 | 1.12 | 0.27 | 95 | 1009.0 |
| 20260506121119 | 45 | 288 | 0.0 | 0.0 | 0.00 | 1.12 | 0.27 | 96 | 1009.0 |
| 20260506120602 | 44 | 288 | 0.0 | 2.0 | 0.00 | 1.12 | 0.27 | 95 | 1008.9 |
| 20260506120045 | 44 | 288 | 0.0 | 2.0 | 0.00 | 1.12 | 0.27 | 96 | 1008.9 |
| 20260506115549 | 44 | 288 | 0.0 | 2.0 | 0.00 | 1.12 | 0.27 | 96 | 1009.0 |
| 20260506115053 | 44 | 288 | 0.0 | 1.0 | 0.00 | 1.12 | 0.27 | 96 | 1008.7 |
| 20260506114554 | 44 | 288 | 0.0 | 1.0 | 0.00 | 1.12 | 0.27 | 96 | 1008.8 |
| 20260506114058 | 44 | 288 | 0.0 | 1.0 | 0.00 | 1.12 | 0.27 | 96 | 1008.8 |
| 20260506113602 | 44 | 288 | 0.0 | 1.0 | 0.00 | 1.12 | 0.27 | 96 | 1008.8 |
| 20260506113047 | 44 | 288 | 0.0 | 1.0 | 0.00 | 1.12 | 0.27 | 96 | 1008.9 |
| 20260506112550 | 44 | 288 | 0.0 | 2.0 | 0.00 | 1.12 | 0.27 | 96 | 1008.8 |
| 20260506112054 | 44 | 288 | 0.0 | 2.0 | 0.00 | 1.12 | 0.27 | 96 | 1008.9 |
| 20260506111600 | 44 | 288 | 0.0 | 2.0 | 0.00 | 1.12 | 0.27 | 96 | 1009.0 |
| 20260506111044 | 44 | 288 | 0.0 | 1.0 | 0.00 | 1.12 | 0.27 | 96 | 1008.7 |
| 20260506110608 | 44 | 288 | 0.0 | 1.0 | 0.00 | 1.12 | 0.27 | 96 | 1008.8 |
| 20260506110051 | 44 | 288 | 0.0 | 1.0 | 0.00 | 1.12 | 0.27 | 96 | 1008.5 |
| 20260506105556 | 44 | 288 | 0.0 | 0.0 | 0.00 | 1.12 | 0.27 | 96 | 1008.4 |
| 20260506105101 | 44 | 288 | 0.0 | 3.0 | 0.00 | 1.12 | 0.27 | 96 | 1008.0 |
| 20260506104548 | 44 | 288 | 1.0 | 3.0 | 0.00 | 1.12 | 0.27 | 96 | 1008.1 |
| 20260506104051 | 44 | 288 | 0.0 | 1.0 | 0.00 | 1.12 | 0.27 | 96 | 1008.0 |
| 20260506103618 | 44 | 288 | 0.0 | 1.0 | 0.00 | 1.12 | 0.27 | 96 | 1008.0 |
| 20260506103102 | 44 | 288 | 0.0 | 0.0 | 0.00 | 1.12 | 0.27 | 96 | 1007.7 |
| 20260506102545 | 44 | 288 | 0.0 | 0.0 | 0.00 | 1.12 | 0.27 | 96 | 1007.5 |
| 20260506102114 | 44 | 288 | 0.0 | 0.0 | 0.00 | 1.12 | 0.27 | 96 | 1007.5 |
| 20260506101622 | 44 | 288 | 0.0 | 0.0 | 0.00 | 1.12 | 0.27 | 96 | 1007.5 |
| 20260506101044 | 44 | 288 | 0.0 | 0.0 | 0.01 | 1.12 | 0.27 | 96 | 1007.5 |
| 20260506100547 | 44 | 288 | 0.0 | 0.0 | 0.01 | 1.12 | 0.27 | 96 | 1007.4 |
| 20260506100050 | 43 | 288 | 0.0 | 0.0 | 0.01 | 1.12 | 0.27 | 96 | 1007.5 |
| 20260506095553 | 43 | 288 | 0.0 | 0.0 | 0.01 | 1.12 | 0.27 | 96 | 1007.6 |
| 20260506095121 | 43 | 288 | 0.0 | 0.0 | 0.01 | 1.12 | 0.27 | 96 | 1007.3 |
| 20260506094544 | 44 | 288 | 0.0 | 0.0 | 0.02 | 1.12 | 0.27 | 96 | 1007.2 |
| 20260506094047 | 44 | 288 | 0.0 | 0.0 | 0.02 | 1.12 | 0.27 | 96 | 1007.5 |
| 20260506093547 | 44 | 288 | 0.0 | 0.0 | 0.02 | 1.12 | 0.27 | 96 | 1007.6 |
| 20260506093118 | 44 | 288 | 0.0 | 0.0 | 0.02 | 1.12 | 0.27 | 96 | 1007.8 |
| 20260506092600 | 44 | 288 | 0.0 | 0.0 | 0.02 | 1.12 | 0.27 | 96 | 1007.9 |
| 20260506092044 | 44 | 288 | 0.0 | 0.0 | 0.02 | 1.12 | 0.27 | 96 | 1008.0 |
| 20260506091546 | 44 | 288 | 0.0 | 0.0 | 0.02 | 1.12 | 0.27 | 96 | 1008.0 |
| 20260506091050 | 44 | 288 | 0.0 | 0.0 | 0.01 | 1.11 | 0.26 | 96 | 1007.9 |
| 20260506090556 | 44 | 288 | 0.0 | 0.0 | 0.01 | 1.11 | 0.26 | 96 | 1007.8 |
| 20260506085546 | 44 | 288 | 0.0 | 0.0 | 0.02 | 1.11 | 0.26 | 95 | 1007.6 |
| 20260506085048 | 44 | 288 | 0.0 | 0.0 | 0.02 | 1.11 | 0.26 | 95 | 1007.8 |
| 20260506084555 | 44 | 288 | 0.0 | 0.0 | 0.01 | 1.10 | 0.25 | 95 | 1007.8 |
| 20260506084058 | 44 | 288 | 0.0 | 0.0 | 0.01 | 1.10 | 0.25 | 95 | 1008.0 |
| 20260506083543 | 44 | 288 | 0.0 | 0.0 | 0.02 | 1.10 | 0.25 | 95 | 1008.1 |
| 20260506083047 | 44 | 288 | 0.0 | 0.0 | 0.03 | 1.10 | 0.25 | 95 | 1007.8 |
| 20260506082554 | 44 | 288 | 0.0 | 0.0 | 0.03 | 1.10 | 0.25 | 96 | 1007.9 |
| 20260506082120 | 44 | 288 | 0.0 | 0.0 | 0.04 | 1.10 | 0.25 | 96 | 1008.0 |
| 20260506081545 | 44 | 288 | 0.0 | 0.0 | 0.04 | 1.10 | 0.25 | 95 | 1007.7 |
| 20260506081050 | 44 | 288 | 0.0 | 0.0 | 0.04 | 1.10 | 0.25 | 96 | 1007.5 |
| 20260506080555 | 44 | 288 | 0.0 | 0.0 | 0.04 | 1.10 | 0.25 | 95 | 1007.4 |
| 20260506073042 | 45 | 288 | 0.0 | 0.0 | 0.05 | 1.08 | 0.23 | 95 | 1007.8 |
| 20260506072550 | 45 | 288 | 0.0 | 0.0 | 0.04 | 1.07 | 0.22 | 96 | 1008.1 |
| 20260506072054 | 45 | 288 | 0.0 | 0.0 | 0.03 | 1.06 | 0.21 | 96 | 1008.2 |
| 20260506071557 | 45 | 288 | 0.0 | 0.0 | 0.04 | 1.06 | 0.21 | 95 | 1008.2 |
| 20260506071059 | 44 | 288 | 0.0 | 0.0 | 0.04 | 1.06 | 0.21 | 95 | 1008.0 |
| 20260506070542 | 45 | 288 | 0.0 | 0.0 | 0.05 | 1.06 | 0.21 | 96 | 1008.0 |
| 20260506062046 | 46 | 288 | 1.0 | 4.0 | 0.09 | 1.03 | 0.18 | 96 | 1008.1 |
| 20260506061553 | 46 | 288 | 0.0 | 4.0 | 0.09 | 1.02 | 0.17 | 96 | 1008.0 |
| 20260506061058 | 47 | 288 | 2.0 | 4.0 | 0.09 | 1.02 | 0.17 | 96 | 1007.7 |
| 20260506060602 | 47 | 288 | 1.0 | 2.0 | 0.08 | 1.01 | 0.16 | 96 | 1007.6 |
| 20260506051054 | 47 | 288 | 0.0 | 0.0 | 0.07 | 0.93 | 0.08 | 96 | 1007.9 |
| 20260506050545 | 47 | 288 | 0.0 | 0.0 | 0.07 | 0.93 | 0.08 | 96 | 1007.9 |
| 20260506050115 | 47 | 288 | 0.0 | 0.0 | 0.07 | 0.92 | 0.07 | 96 | 1007.9 |
| 20260506045117 | 47 | 288 | 0.0 | 0.0 | 0.08 | 0.92 | 0.07 | 96 | 1007.7 |
| 20260506044619 | 47 | 288 | 0.0 | 0.0 | 0.08 | 0.91 | 0.06 | 96 | 1007.8 |
| 20260506044045 | 47 | 288 | 0.0 | 0.0 | 0.07 | 0.90 | 0.05 | 96 | 1007.8 |
| 20260506043549 | 47 | 288 | 0.0 | 0.0 | 0.08 | 0.90 | 0.05 | 96 | 1007.8 |
| 20260506043045 | 47 | 288 | 0.0 | 0.0 | 0.07 | 0.89 | 0.04 | 96 | 1007.8 |
| 20260506042105 | 47 | 288 | 0.0 | 0.0 | 0.06 | 0.87 | 0.02 | 96 | 1007.8 |
| 20260506041550 | 47 | 288 | 0.0 | 0.0 | 0.06 | 0.87 | 0.02 | 96 | 1007.9 |
| 20260506041044 | 47 | 288 | 0.0 | 0.0 | 0.06 | 0.86 | 0.01 | 96 | 1007.8 |
| 20260506040548 | 47 | 288 | 0.0 | 0.0 | 0.07 | 0.86 | 0.01 | 96 | 1007.7 |
| 20260506040117 | 47 | 288 | 0.0 | 0.0 | 0.07 | 0.85 | 0.85 | 96 | 1007.8 |
| 20260506035557 | 47 | 288 | 0.0 | 0.0 | 0.08 | 0.85 | 0.85 | 96 | 1007.8 |
| 20260506035042 | 47 | 288 | 0.0 | 0.0 | 0.08 | 0.84 | 0.84 | 95 | 1007.7 |
| 20260506034605 | 48 | 288 | 0.0 | 0.0 | 0.08 | 0.83 | 0.83 | 96 | 1007.9 |
| 20260506034050 | 48 | 288 | 0.0 | 0.0 | 0.09 | 0.83 | 0.83 | 95 | 1007.8 |
| 20260506033555 | 48 | 288 | 0.0 | 0.0 | 0.08 | 0.82 | 0.82 | 95 | 1007.8 |
| 20260506033059 | 48 | 288 | 0.0 | 0.0 | 0.09 | 0.82 | 0.82 | 95 | 1007.8 |
| 20260506032544 | 48 | 288 | 0.0 | 0.0 | 0.10 | 0.82 | 0.82 | 95 | 1007.7 |
| 20260506032113 | 48 | 288 | 0.0 | 0.0 | 0.09 | 0.81 | 0.81 | 95 | 1007.6 |
| 20260506031558 | 48 | 288 | 0.0 | 0.0 | 0.10 | 0.81 | 0.81 | 95 | 1007.8 |
| 20260506031043 | 48 | 288 | 0.0 | 0.0 | 0.10 | 0.80 | 0.80 | 95 | 1008.0 |
| 20260506030547 | 48 | 288 | 0.0 | 0.0 | 0.10 | 0.79 | 0.79 | 95 | 1008.1 |
| 20260506030053 | 48 | 288 | 0.0 | 0.0 | 0.10 | 0.78 | 0.78 | 95 | 1008.2 |
| 20260506025557 | 48 | 288 | 0.0 | 0.0 | 0.11 | 0.77 | 0.77 | 95 | 1008.3 |
| 20260506025101 | 48 | 288 | 0.0 | 0.0 | 0.11 | 0.76 | 0.76 | 95 | 1008.3 |
| 20260506024546 | 48 | 288 | 0.0 | 0.0 | 0.11 | 0.75 | 0.75 | 95 | 1008.3 |
| 20260506024046 | 48 | 288 | 0.0 | 0.0 | 0.11 | 0.74 | 0.74 | 95 | 1008.3 |
| 20260506023610 | 48 | 288 | 0.0 | 0.0 | 0.12 | 0.74 | 0.74 | 95 | 1008.3 |
| 20260506023054 | 48 | 288 | 0.0 | 0.0 | 0.11 | 0.73 | 0.73 | 95 | 1008.3 |
| 20260506022559 | 48 | 288 | 0.0 | 0.0 | 0.12 | 0.73 | 0.73 | 95 | 1008.1 |
| 20260506022045 | 48 | 288 | 0.0 | 0.0 | 0.12 | 0.72 | 0.72 | 95 | 1008.2 |
| 20260506021614 | 48 | 288 | 0.0 | 0.0 | 0.11 | 0.71 | 0.71 | 95 | 1008.2 |
| 20260506021059 | 48 | 288 | 0.0 | 0.0 | 0.11 | 0.70 | 0.70 | 95 | 1008.1 |
| 20260506020547 | 48 | 288 | 0.0 | 0.0 | 0.11 | 0.69 | 0.69 | 95 | 1008.1 |
| 20260506020119 | 48 | 288 | 0.0 | 0.0 | 0.10 | 0.68 | 0.68 | 95 | 1008.1 |
| 20260506015603 | 48 | 288 | 0.0 | 0.0 | 0.09 | 0.66 | 0.66 | 95 | 1008.1 |
| 20260506015117 | 48 | 288 | 0.0 | 0.0 | 0.08 | 0.65 | 0.65 | 95 | 1008.0 |
| 20260506014601 | 48 | 288 | 0.0 | 0.0 | 0.08 | 0.64 | 0.64 | 95 | 1007.9 |
| 20260506014046 | 48 | 288 | 0.0 | 0.0 | 0.07 | 0.63 | 0.63 | 95 | 1007.8 |
| 20260506013550 | 48 | 288 | 0.0 | 0.0 | 0.06 | 0.62 | 0.62 | 95 | 1007.7 |
| 20260506013054 | 48 | 288 | 0.0 | 0.0 | 0.06 | 0.62 | 0.62 | 95 | 1007.7 |
| 20260506012559 | 48 | 288 | 0.0 | 0.0 | 0.05 | 0.61 | 0.61 | 95 | 1007.8 |
| 20260506012043 | 48 | 288 | 0.0 | 0.0 | 0.05 | 0.60 | 0.60 | 95 | 1007.7 |
| 20260506011550 | 48 | 288 | 0.0 | 0.0 | 0.05 | 0.60 | 0.60 | 94 | 1007.6 |
| 20260506011055 | 48 | 288 | 0.0 | 0.0 | 0.04 | 0.59 | 0.59 | 94 | 1007.5 |
| 20260506010541 | 48 | 288 | 0.0 | 0.0 | 0.04 | 0.58 | 0.58 | 94 | 1007.4 |
| 20260506010048 | 48 | 288 | 0.0 | 0.0 | 0.04 | 0.58 | 0.58 | 94 | 1007.2 |
| 20260506005554 | 48 | 288 | 0.0 | 0.0 | 0.04 | 0.57 | 0.57 | 94 | 1007.2 |
| 20260506005059 | 48 | 288 | 0.0 | 0.0 | 0.04 | 0.57 | 0.57 | 94 | 1007.3 |
| 20260506004543 | 48 | 288 | 0.0 | 0.0 | 0.03 | 0.56 | 0.56 | 94 | 1007.3 |
| 20260506004050 | 48 | 288 | 0.0 | 0.0 | 0.04 | 0.56 | 0.56 | 94 | 1007.3 |
| 20260506003557 | 48 | 288 | 0.0 | 0.0 | 0.04 | 0.56 | 0.56 | 94 | 1007.4 |
| 20260506003042 | 48 | 288 | 0.0 | 0.0 | 0.04 | 0.56 | 0.56 | 94 | 1007.4 |
| 20260506002547 | 48 | 288 | 0.0 | 0.0 | 0.04 | 0.56 | 0.56 | 94 | 1007.4 |
| 20260506002052 | 48 | 288 | 0.0 | 0.0 | 0.03 | 0.55 | 0.55 | 94 | 1007.3 |
| 20260506001559 | 49 | 288 | 0.0 | 0.0 | 0.04 | 0.55 | 0.55 | 94 | 1007.4 |
| 20260506001045 | 49 | 288 | 0.0 | 0.0 | 0.04 | 0.55 | 0.55 | 94 | 1007.4 |
| 20260506000547 | 49 | 288 | 0.0 | 0.0 | 0.04 | 0.54 | 0.54 | 94 | 1007.5 |
| 20260506000119 | 49 | 288 | 0.0 | 0.0 | 0.04 | 0.54 | 0.54 | 94 | 1007.5 |
| 20260505235543 | 49 | 288 | 0.0 | 0.0 | 0.03 | 0.53 | 0.53 | 94 | 1007.4 |
| 20260505235050 | 49 | 288 | 0.0 | 0.0 | 0.03 | 0.53 | 0.53 | 94 | 1007.4 |
| 20260505234555 | 49 | 288 | 0.0 | 2.0 | 0.03 | 0.53 | 0.53 | 94 | 1007.3 |
| 20260505234100 | 49 | 288 | 0.0 | 2.0 | 0.03 | 0.53 | 0.53 | 94 | 1007.2 |
| 20260505233544 | 50 | 288 | 0.0 | 1.0 | 0.03 | 0.52 | 0.52 | 94 | 1007.1 |
| 20260505233050 | 50 | 288 | 0.0 | 2.0 | 0.03 | 0.52 | 0.52 | 94 | 1007.2 |
| 20260505232556 | 50 | 288 | 0.0 | 2.0 | 0.03 | 0.52 | 0.52 | 94 | 1007.1 |
| 20260505232103 | 50 | 288 | 0.0 | 2.0 | 0.04 | 0.52 | 0.52 | 94 | 1007.1 |
| 20260505231547 | 50 | 288 | 0.0 | 3.0 | 0.03 | 0.51 | 0.51 | 94 | 1007.1 |
| 20260505231053 | 49 | 288 | 0.0 | 3.0 | 0.04 | 0.51 | 0.51 | 94 | 1007.0 |
| 20260505230543 | 49 | 288 | 0.0 | 2.0 | 0.04 | 0.50 | 0.50 | 94 | 1007.1 |
| 20260505230048 | 50 | 288 | 0.0 | 4.0 | 0.05 | 0.50 | 0.50 | 94 | 1007.0 |
| 20260505225552 | 50 | 288 | 1.0 | 4.0 | 0.06 | 0.50 | 0.50 | 94 | 1007.1 |
| 20260505225058 | 50 | 288 | 0.0 | 2.0 | 0.09 | 0.50 | 0.50 | 94 | 1007.1 |
| 20260505224545 | 50 | 288 | 1.0 | 2.0 | 0.10 | 0.50 | 0.50 | 94 | 1007.1 |
| 20260505224051 | 50 | 288 | 0.0 | 2.0 | 0.11 | 0.50 | 0.50 | 94 | 1007.0 |
| 20260505223622 | 50 | 288 | 0.0 | 0.0 | 0.12 | 0.50 | 0.50 | 94 | 1006.8 |
| 20260505223108 | 51 | 288 | 0.0 | 0.0 | 0.13 | 0.49 | 0.49 | 94 | 1006.9 |
| 20260505222552 | 51 | 288 | 0.0 | 0.0 | 0.15 | 0.49 | 0.49 | 94 | 1007.2 |
| 20260505222058 | 51 | 288 | 0.0 | 0.0 | 0.15 | 0.48 | 0.48 | 94 | 1007.2 |
| 20260505221546 | 51 | 288 | 0.0 | 0.0 | 0.17 | 0.48 | 0.48 | 94 | 1007.2 |
| 20260505221053 | 50 | 288 | 0.0 | 1.0 | 0.18 | 0.47 | 0.47 | 94 | 1007.2 |
| 20260505220559 | 51 | 288 | 0.0 | 1.0 | 0.19 | 0.46 | 0.46 | 94 | 1007.3 |
| 20260505220111 | 51 | 288 | 0.0 | 2.0 | 0.18 | 0.45 | 0.45 | 94 | 1007.2 |
| 20260505215556 | 51 | 288 | 0.0 | 2.0 | 0.18 | 0.44 | 0.44 | 93 | 1007.1 |
| 20260505215043 | 51 | 288 | 0.0 | 2.0 | 0.16 | 0.41 | 0.41 | 94 | 1007.2 |
| 20260505214547 | 51 | 288 | 0.0 | 2.0 | 0.15 | 0.40 | 0.40 | 93 | 1007.0 |
| 20260505214049 | 51 | 288 | 0.0 | 4.0 | 0.15 | 0.39 | 0.39 | 93 | 1006.9 |
| 20260505213556 | 51 | 288 | 1.0 | 4.0 | 0.15 | 0.38 | 0.38 | 93 | 1006.8 |
| 20260505213042 | 51 | 330 | 0.0 | 2.0 | 0.13 | 0.36 | 0.36 | 93 | 1006.7 |
| 20260505212546 | 51 | 330 | 1.0 | 2.0 | 0.13 | 0.35 | 0.35 | 93 | 1006.7 |
| 20260505212056 | 52 | 330 | 0.0 | 0.0 | 0.12 | 0.33 | 0.33 | 93 | 1006.7 |
| 20260505211544 | 51 | 330 | 0.0 | 1.0 | 0.10 | 0.31 | 0.31 | 93 | 1006.8 |
| 20260505211049 | 51 | 330 | 0.0 | 2.0 | 0.08 | 0.29 | 0.29 | 93 | 1006.8 |
| 20260505210556 | 51 | 330 | 0.0 | 2.0 | 0.08 | 0.28 | 0.28 | 92 | 1006.7 |
| 20260505210043 | 52 | 330 | 0.0 | 1.0 | 0.07 | 0.27 | 0.27 | 92 | 1006.6 |
| 20260505205549 | 52 | 330 | 0.0 | 1.0 | 0.06 | 0.26 | 0.26 | 92 | 1006.5 |
| 20260505205120 | 52 | 330 | 0.0 | 2.0 | 0.06 | 0.25 | 0.25 | 92 | 1006.6 |
| 20260505204544 | 52 | 330 | 0.0 | 4.0 | 0.06 | 0.25 | 0.25 | 92 | 1006.6 |
| 20260505204052 | 51 | 330 | 1.0 | 4.0 | 0.05 | 0.24 | 0.24 | 92 | 1006.6 |
| 20260505203557 | 51 | 330 | 1.0 | 3.0 | 0.05 | 0.23 | 0.23 | 92 | 1006.5 |
| 20260505203044 | 52 | 330 | 1.0 | 5.0 | 0.05 | 0.23 | 0.23 | 92 | 1006.5 |
| 20260505202550 | 52 | 330 | 3.0 | 5.0 | 0.05 | 0.22 | 0.22 | 92 | 1006.5 |
| 20260505202055 | 52 | 330 | 0.0 | 3.0 | 0.06 | 0.21 | 0.21 | 92 | 1006.8 |
| 20260505201556 | 52 | 330 | 0.0 | 2.0 | 0.07 | 0.21 | 0.21 | 92 | 1006.8 |
| 20260505201109 | 52 | 330 | 0.0 | 3.0 | 0.08 | 0.21 | 0.21 | 92 | 1006.7 |
| 20260505200555 | 52 | 330 | 0.0 | 4.0 | 0.08 | 0.20 | 0.20 | 92 | 1006.8 |
| 20260505200042 | 52 | 330 | 1.0 | 4.0 | 0.09 | 0.20 | 0.20 | 92 | 1006.9 |
| 20260505195547 | 52 | 330 | 0.0 | 3.0 | 0.09 | 0.20 | 0.20 | 92 | 1007.2 |
| 20260505195053 | 53 | 330 | 0.0 | 1.0 | 0.09 | 0.19 | 0.19 | 92 | 1007.3 |
| 20260505194558 | 53 | 330 | 0.0 | 3.0 | 0.09 | 0.19 | 0.19 | 92 | 1007.2 |
| 20260505194045 | 53 | 330 | 1.0 | 4.0 | 0.11 | 0.19 | 0.19 | 92 | 1007.2 |
| 20260505193552 | 53 | 330 | 1.0 | 4.0 | 0.11 | 0.18 | 0.18 | 92 | 1007.3 |
| 20260505193100 | 54 | 329 | 0.0 | 2.0 | 0.11 | 0.18 | 0.18 | 92 | 1007.3 |
| 20260505192546 | 54 | 330 | 0.0 | 2.0 | 0.10 | 0.17 | 0.17 | 92 | 1007.3 |
| 20260505192117 | 54 | 330 | 0.0 | 2.0 | 0.10 | 0.16 | 0.16 | 92 | 1007.3 |
| 20260505191542 | 55 | 330 | 1.0 | 2.0 | 0.08 | 0.14 | 0.14 | 92 | 1007.2 |
| 20260505191048 | 55 | 330 | 1.0 | 2.0 | 0.08 | 0.13 | 0.13 | 92 | 1007.0 |
| 20260505190554 | 55 | 330 | 0.0 | 1.0 | 0.07 | 0.12 | 0.12 | 91 | 1006.8 |
| 20260505190041 | 55 | 330 | 0.0 | 2.0 | 0.07 | 0.11 | 0.11 | 92 | 1006.7 |
| 20260505185541 | 56 | 330 | 1.0 | 2.0 | 0.08 | 0.11 | 0.11 | 91 | 1006.7 |
| 20260505185046 | 56 | 330 | 0.0 | 1.0 | 0.08 | 0.10 | 0.10 | 91 | 1006.7 |
| 20260505184553 | 56 | 330 | 0.0 | 2.0 | 0.09 | 0.10 | 0.10 | 91 | 1006.7 |
| 20260505184059 | 56 | 330 | 0.0 | 4.0 | 0.07 | 0.08 | 0.08 | 91 | 1006.8 |
| 20260505183547 | 56 | 330 | 0.0 | 4.0 | 0.07 | 0.07 | 0.07 | 90 | 1006.7 |
| 20260505183054 | 56 | 330 | 0.0 | 3.0 | 0.07 | 0.07 | 0.07 | 90 | 1006.6 |
| 20260505182559 | 56 | 330 | 0.0 | 5.0 | 0.07 | 0.07 | 0.07 | 90 | 1006.6 |
| 20260505182044 | 56 | 329 | 2.0 | 5.0 | 0.06 | 0.06 | 0.06 | 90 | 1006.5 |
| 20260505181612 | 56 | 329 | 1.0 | 3.0 | 0.06 | 0.06 | 0.06 | 89 | 1006.3 |
| 20260505181102 | 57 | 329 | 0.0 | 3.0 | 0.05 | 0.05 | 0.05 | 88 | 1006.3 |
| 20260505180545 | 57 | 329 | 0.0 | 3.0 | 0.05 | 0.05 | 0.05 | 87 | 1006.5 |
| 20260505180049 | 57 | 330 | 0.0 | 1.0 | 0.04 | 0.04 | 0.04 | 86 | 1006.4 |
| 20260505175555 | 58 | 330 | 1.0 | 2.0 | 0.03 | 0.03 | 0.03 | 85 | 1006.3 |
| 20260505175058 | 58 | 329 | 0.0 | 2.0 | 0.02 | 0.02 | 0.02 | 85 | 1006.5 |
| 20260505174542 | 59 | 330 | 0.0 | 1.0 | 0.02 | 0.02 | 0.02 | 84 | 1006.2 |
| 20260505174048 | 59 | 330 | 0.0 | 2.0 | 0.01 | 0.01 | 0.01 | 84 | 1006.4 |
| 20260505173551 | 60 | 330 | 1.0 | 2.0 | 0.00 | 0.00 | 0.00 | 82 | 1006.3 |
| 20260505173100 | 60 | 330 | 0.0 | 3.0 | 0.00 | 0.00 | 0.00 | 81 | 1006.3 |
| 20260505172544 | 60 | 330 | 0.0 | 3.0 | 0.00 | 0.00 | 0.00 | 80 | 1006.3 |
| 20260505172046 | 60 | 330 | 0.0 | 4.0 | 0.00 | 0.00 | 0.00 | 79 | 1006.3 |
| 20260505171617 | 60 | 330 | 1.0 | 4.0 | 0.00 | 0.00 | 0.00 | 79 | 1006.3 |
| 20260505171100 | 60 | 330 | 1.0 | 4.0 | 0.00 | 0.00 | 0.00 | 80 | 1006.3 |
| 20260505170545 | 60 | 330 | 1.0 | 4.0 | 0.00 | 0.00 | 0.00 | 80 | 1006.4 |
| 20260505170051 | 60 | 330 | 1.0 | 3.0 | 0.00 | 0.00 | 0.00 | 79 | 1006.5 |
| 20260505165557 | 61 | 330 | 1.0 | 6.0 | 0.00 | 0.00 | 0.00 | 79 | 1006.5 |
| 20260505165103 | 61 | 330 | 2.0 | 6.0 | 0.00 | 0.00 | 0.00 | 78 | 1006.5 |
| 20260505164549 | 61 | 240 | 1.0 | 4.0 | 0.00 | 0.00 | 0.00 | 78 | 1006.5 |
| 20260505164117 | 61 | 240 | 1.0 | 6.0 | 0.00 | 0.00 | 0.00 | 78 | 1006.5 |
| 20260505163600 | 61 | 242 | 1.0 | 12.0 | 0.00 | 0.00 | 0.00 | 78 | 1006.4 |
| 20260505163111 | 61 | 242 | 3.0 | 12.0 | 0.00 | 0.00 | 0.00 | 77 | 1006.4 |
| 20260505162618 | 61 | 232 | 2.0 | 5.0 | 0.00 | 0.00 | 0.00 | 77 | 1006.3 |
| 20260505162104 | 61 | 232 | 1.0 | 5.0 | 0.00 | 0.00 | 0.00 | 77 | 1006.3 |
| 20260505161548 | 61 | 224 | 1.0 | 2.0 | 0.00 | 0.00 | 0.00 | 77 | 1006.5 |
| 20260505161058 | 61 | 224 | 1.0 | 5.0 | 0.00 | 0.00 | 0.00 | 77 | 1006.4 |
| 20260505160543 | 61 | 224 | 2.0 | 16.0 | 0.00 | 0.00 | 0.00 | 76 | 1006.4 |
| 20260505160108 | 61 | 224 | 2.0 | 16.0 | 0.00 | 0.00 | 0.00 | 76 | 1006.3 |
| 20260505153100 | 62 | 61 | 2.0 | 7.0 | 0.00 | 0.00 | 0.00 | 76 | 1006.4 |
| 20260505152545 | 62 | 348 | 2.0 | 7.0 | 0.00 | 0.00 | 0.00 | 76 | 1006.4 |
| 20260505152051 | 62 | 179 | 2.0 | 7.0 | 0.00 | 0.00 | 0.00 | 76 | 1006.3 |
| 20260505151556 | 62 | 82 | 1.0 | 9.0 | 0.00 | 0.00 | 0.00 | 76 | 1006.2 |
| 20260505151059 | 62 | 312 | 3.0 | 9.0 | 0.00 | 0.00 | 0.00 | 75 | 1006.0 |
| 20260505150544 | 63 | 310 | 2.0 | 5.0 | 0.00 | 0.00 | 0.00 | 75 | 1006.0 |